owner,sensor,date,latitude,longitude,vertical_datum,direction_of_sea_water_velocity,sea_water_speed,upward_sea_water_velocity,qcFlag 
TABS,ioos:station:wmo:42048:1,2014-10-01T00:00:00Z,27.9396,-96.8429,2.0,236.9560906,62.18862436,-99999.0,'11111222,11111222,99999999' 
TABS,ioos:station:wmo:42048:1,2014-10-01T00:30:00Z,27.9396,-96.8429,2.0,237.7033217,64.08405808,-99999.0,'11111222,11111222,99999999' 
TABS,ioos:station:wmo:42048:1,2014-10-01T01:00:00Z,27.9396,-96.8429,2.0,232.1564306,56.98422238,-99999.0,'11111222,11111222,99999999' 
TABS,ioos:station:wmo:42048:1,2014-10-01T01:30:00Z,27.9396,-96.8429,2.0,232.41984,59.07853502,-99999.0,'11111222,11111222,99999999' 
TABS,ioos:station:wmo:42048:1,2014-10-01T02:00:00Z,27.9396,-96.8429,2.0,232.1718423,57.54204202,-99999.0,'11111222,11111222,99999999' 
TABS,ioos:station:wmo:42048:1,2014-10-01T02:30:00Z,27.9396,-96.8429,2.0,230.6137106,63.46318145,-99999.0,'11111222,11111222,99999999' 
TABS,ioos:station:wmo:42048:1,2014-10-01T03:00:00Z,27.9396,-96.8429,2.0,232.6386071,63.4603317,-99999.0,'11111222,11111222,99999999' 
TABS,ioos:station:wmo:42048:1,2014-10-01T03:30:00Z,27.9396,-96.8429,2.0,229.9600325,59.861582,-99999.0,'11111222,11111222,99999999' 
TABS,ioos:station:wmo:42048:1,2014-10-01T04:00:00Z,27.9396,-96.8429,2.0,227.9627991,57.45145603,-99999.0,'11111222,11111222,99999999' 
TABS,ioos:station:wmo:42048:1,2014-10-01T04:30:00Z,27.9396,-96.8429,2.0,224.2978182,51.37516229,-99999.0,'11111222,11111222,99999999' 
TABS,ioos:station:wmo:42048:1,2014-10-01T05:00:00Z,27.9396,-96.8429,2.0,222.7363086,49.95363951,-99999.0,'11111222,11111222,99999999' 
TABS,ioos:station:wmo:42048:1,2014-10-01T05:30:00Z,27.9396,-96.8429,2.0,221.8212565,48.33439045,-99999.0,'11111222,11111222,99999999' 
TABS,ioos:station:wmo:42048:1,2014-10-01T06:00:00Z,27.9396,-96.8429,2.0,230.8177666,49.87459975,-99999.0,'11111222,11111222,99999999' 
TABS,ioos:station:wmo:42048:1,2014-10-01T06:30:00Z,27.9396,-96.8429,2.0,227.7494936,52.47117304,-99999.0,'11111222,11111222,99999999' 
TABS,ioos:station:wmo:42048:1,2014-10-01T07:00:00Z,27.9396,-96.8429,2.0,229.724125,48.07690506,-99999.0,'11111222,11111222,99999999' 
TABS,ioos:station:wmo:42048:1,2014-10-01T07:30:00Z,27.9396,-96.8429,2.0,228.8345334,44.08782712,-99999.0,'11111222,11111222,99999999' 
TABS,ioos:station:wmo:42048:1,2014-10-01T08:00:00Z,27.9396,-96.8429,2.0,228.3191339,38.46750967,-99999.0,'11111222,11111222,99999999' 
TABS,ioos:station:wmo:42048:1,2014-10-01T08:30:00Z,27.9396,-96.8429,2.0,227.0654614,39.03645091,-99999.0,'11111222,11111222,99999999' 
TABS,ioos:station:wmo:42048:1,2014-10-01T09:00:00Z,27.9396,-96.8429,2.0,232.9036868,35.48027621,-99999.0,'11111222,11111222,99999999' 
TABS,ioos:station:wmo:42048:1,2014-10-01T09:30:00Z,27.9396,-96.8429,2.0,228.7422462,36.18203422,-99999.0,'11111222,11111222,99999999' 
TABS,ioos:station:wmo:42048:1,2014-10-01T10:00:00Z,27.9396,-96.8429,2.0,228.9708218,33.28565156,-99999.0,'11111222,11111222,99999999' 
TABS,ioos:station:wmo:42048:1,2014-10-01T10:30:00Z,27.9396,-96.8429,2.0,233.3358662,27.80017986,-99999.0,'11111222,11111222,99999999' 
TABS,ioos:station:wmo:42048:1,2014-10-01T11:00:00Z,27.9396,-96.8429,2.0,227.5212182,28.60895664,-99999.0,'11111222,11111222,99999999' 
TABS,ioos:station:wmo:42048:1,2014-10-01T11:30:00Z,27.9396,-96.8429,2.0,230.3843693,29.68807505,-99999.0,'11111222,11111222,99999999' 
TABS,ioos:station:wmo:42048:1,2014-10-01T12:00:00Z,27.9396,-96.8429,2.0,230.0213746,28.0312415,-99999.0,'11111222,11111222,99999999' 
TABS,ioos:station:wmo:42048:1,2014-10-01T12:30:00Z,27.9396,-96.8429,2.0,225.7316084,26.01658125,-99999.0,'11111222,11111222,99999999' 
TABS,ioos:station:wmo:42048:1,2014-10-01T13:00:00Z,27.9396,-96.8429,2.0,228.1984788,27.24484722,-99999.0,'11111222,11111222,99999999' 
TABS,ioos:station:wmo:42048:1,2014-10-01T13:30:00Z,27.9396,-96.8429,2.0,220.152228,23.68085514,-99999.0,'11111222,11111222,99999999' 
TABS,ioos:station:wmo:42048:1,2014-10-01T14:00:00Z,27.9396,-96.8429,2.0,213.1994692,24.30785264,-99999.0,'11111222,11111222,99999999' 
TABS,ioos:station:wmo:42048:1,2014-10-01T14:30:00Z,27.9396,-96.8429,2.0,216.5952845,21.72224896,-99999.0,'11111222,11111222,99999999' 
TABS,ioos:station:wmo:42048:1,2014-10-01T15:00:00Z,27.9396,-96.8429,2.0,210.2255939,20.24194161,-99999.0,'11111222,11111222,99999999' 
TABS,ioos:station:wmo:42048:1,2014-10-01T15:30:00Z,27.9396,-96.8429,2.0,204.162716,16.53907494,-99999.0,'11111222,11111222,99999999' 
TABS,ioos:station:wmo:42048:1,2014-10-01T16:00:00Z,27.9396,-96.8429,2.0,205.177455,23.45875743,-99999.0,'11111222,11111222,99999999' 
TABS,ioos:station:wmo:42048:1,2014-10-01T16:30:00Z,27.9396,-96.8429,2.0,201.268019,18.36049291,-99999.0,'11111222,11111222,99999999' 
TABS,ioos:station:wmo:42048:1,2014-10-01T17:00:00Z,27.9396,-96.8429,2.0,204.4843073,24.51452019,-99999.0,'11111222,11111222,99999999' 
TABS,ioos:station:wmo:42048:1,2014-10-01T17:30:00Z,27.9396,-96.8429,2.0,201.5248548,23.87512722,-99999.0,'11111222,11111222,99999999' 
TABS,ioos:station:wmo:42048:1,2014-10-01T18:00:00Z,27.9396,-96.8429,2.0,201.4620443,23.53172539,-99999.0,'11111222,11111222,99999999' 
TABS,ioos:station:wmo:42048:1,2014-10-01T18:30:00Z,27.9396,-96.8429,2.0,205.1266963,16.03765881,-99999.0,'11111222,11111222,99999999' 
TABS,ioos:station:wmo:42048:1,2014-10-01T19:00:00Z,27.9396,-96.8429,2.0,198.4188151,22.81899647,-99999.0,'11111222,11111222,99999999' 
TABS,ioos:station:wmo:42048:1,2014-10-01T19:30:00Z,27.9396,-96.8429,2.0,199.8773917,21.35214275,-99999.0,'11111222,11111222,99999999' 
TABS,ioos:station:wmo:42048:1,2014-10-01T20:00:00Z,27.9396,-96.8429,2.0,207.6127528,19.80593093,-99999.0,'11111222,11111222,99999999' 
TABS,ioos:station:wmo:42048:1,2014-10-01T20:30:00Z,27.9396,-96.8429,2.0,199.1787527,14.12392297,-99999.0,'11111222,11111222,99999999' 
TABS,ioos:station:wmo:42048:1,2014-10-01T21:00:00Z,27.9396,-96.8429,2.0,210.919569,17.90445755,-99999.0,'11111222,11111222,99999999' 
TABS,ioos:station:wmo:42048:1,2014-10-01T21:30:00Z,27.9396,-96.8429,2.0,202.7013284,8.628470316,-99999.0,'11133222,11111222,99999999' 
TABS,ioos:station:wmo:42048:1,2014-10-01T22:00:00Z,27.9396,-96.8429,2.0,207.0548372,12.02601347,-99999.0,'11111222,11111222,99999999' 
TABS,ioos:station:wmo:42048:1,2014-10-01T22:30:00Z,27.9396,-96.8429,2.0,211.8766223,13.2362268,-99999.0,'11111222,11111222,99999999' 
TABS,ioos:station:wmo:42048:1,2014-10-01T23:00:00Z,27.9396,-96.8429,2.0,202.7848553,19.46931175,-99999.0,'11111222,11111222,99999999' 
TABS,ioos:station:wmo:42048:1,2014-10-01T23:30:00Z,27.9396,-96.8429,2.0,207.4916689,11.61118426,-99999.0,'11111222,11111222,99999999' 
TABS,ioos:station:wmo:42048:1,2014-10-02T00:00:00Z,27.9396,-96.8429,2.0,225.4158681,20.44299636,-99999.0,'11111222,11111222,99999999' 
TABS,ioos:station:wmo:42048:1,2014-10-02T00:30:00Z,27.9396,-96.8429,2.0,233.1351511,21.28600009,-99999.0,'11111222,11111222,99999999' 
TABS,ioos:station:wmo:42048:1,2014-10-02T01:00:00Z,27.9396,-96.8429,2.0,237.9547879,19.99686475,-99999.0,'11111222,11111222,99999999' 
TABS,ioos:station:wmo:42048:1,2014-10-02T01:30:00Z,27.9396,-96.8429,2.0,242.6035238,19.73313964,-99999.0,'11111222,11111222,99999999' 
TABS,ioos:station:wmo:42048:1,2014-10-02T02:00:00Z,27.9396,-96.8429,2.0,250.5237249,19.49549692,-99999.0,'11111222,11111222,99999999' 
TABS,ioos:station:wmo:42048:1,2014-10-02T02:30:00Z,27.9396,-96.8429,2.0,251.7778938,17.8448564,-99999.0,'11111222,11111222,99999999' 
TABS,ioos:station:wmo:42048:1,2014-10-02T03:00:00Z,27.9396,-96.8429,2.0,256.2549468,16.20401493,-99999.0,'11111222,11111222,99999999' 
TABS,ioos:station:wmo:42048:1,2014-10-02T03:30:00Z,27.9396,-96.8429,2.0,256.8459016,15.11661338,-99999.0,'11111222,11111222,99999999' 
TABS,ioos:station:wmo:42048:1,2014-10-02T04:00:00Z,27.9396,-96.8429,2.0,258.5217127,10.70406465,-99999.0,'11111222,11111222,99999999' 
TABS,ioos:station:wmo:42048:1,2014-10-02T04:30:00Z,27.9396,-96.8429,2.0,269.3720506,9.130547629,-99999.0,'11133222,11111222,99999999' 
TABS,ioos:station:wmo:42048:1,2014-10-02T05:00:00Z,27.9396,-96.8429,2.0,293.0930993,5.685578247,-99999.0,'11133222,11111222,99999999' 
TABS,ioos:station:wmo:42048:1,2014-10-02T05:30:00Z,27.9396,-96.8429,2.0,273.7589678,2.745906044,-99999.0,'11133222,11111222,99999999' 
TABS,ioos:station:wmo:42048:1,2014-10-02T06:00:00Z,27.9396,-96.8429,2.0,274.8139606,3.813449882,-99999.0,'11133222,11111222,99999999' 
TABS,ioos:station:wmo:42048:1,2014-10-02T06:30:00Z,27.9396,-96.8429,2.0,15.35766797,1.472582765,-99999.0,'11133222,11111222,99999999' 
TABS,ioos:station:wmo:42048:1,2014-10-02T07:00:00Z,27.9396,-96.8429,2.0,309.0029291,1.827265717,-99999.0,'11133222,11111222,99999999' 
TABS,ioos:station:wmo:42048:1,2014-10-02T07:30:00Z,27.9396,-96.8429,2.0,80.3481891,1.491106971,-99999.0,'11133222,11111222,99999999' 
TABS,ioos:station:wmo:42048:1,2014-10-02T08:00:00Z,27.9396,-96.8429,2.0,95.27021893,4.790250515,-99999.0,'11133222,11111222,99999999' 
TABS,ioos:station:wmo:42048:1,2014-10-02T08:30:00Z,27.9396,-96.8429,2.0,96.76458135,6.112552658,-99999.0,'11133222,11111222,99999999' 
TABS,ioos:station:wmo:42048:1,2014-10-02T09:00:00Z,27.9396,-96.8429,2.0,106.6509684,5.688532324,-99999.0,'11133222,11111222,99999999' 
TABS,ioos:station:wmo:42048:1,2014-10-02T09:30:00Z,27.9396,-96.8429,2.0,98.88063838,7.125419286,-99999.0,'11133222,11111222,99999999' 
TABS,ioos:station:wmo:42048:1,2014-10-02T10:00:00Z,27.9396,-96.8429,2.0,101.6771808,7.95463387,-99999.0,'11133222,11111222,99999999' 
TABS,ioos:station:wmo:42048:1,2014-10-02T10:30:00Z,27.9396,-96.8429,2.0,122.6682336,6.687974282,-99999.0,'11133222,11111222,99999999' 
TABS,ioos:station:wmo:42048:1,2014-10-02T11:00:00Z,27.9396,-96.8429,2.0,117.7752804,9.527775186,-99999.0,'11133222,11111222,99999999' 
TABS,ioos:station:wmo:42048:1,2014-10-02T11:30:00Z,27.9396,-96.8429,2.0,117.1442451,9.731865186,-99999.0,'11133222,11111222,99999999' 
TABS,ioos:station:wmo:42048:1,2014-10-02T12:00:00Z,27.9396,-96.8429,2.0,140.1216705,8.079133617,-99999.0,'11133222,11111222,99999999' 
TABS,ioos:station:wmo:42048:1,2014-10-02T12:30:00Z,27.9396,-96.8429,2.0,136.7355953,11.43916518,-99999.0,'11111222,11111222,99999999' 
TABS,ioos:station:wmo:42048:1,2014-10-02T13:00:00Z,27.9396,-96.8429,2.0,149.109521,9.368975398,-99999.0,'11133222,11111222,99999999' 
TABS,ioos:station:wmo:42048:1,2014-10-02T13:30:00Z,27.9396,-96.8429,2.0,146.5497812,10.59486668,-99999.0,'11111222,11111222,99999999' 
TABS,ioos:station:wmo:42048:1,2014-10-02T14:00:00Z,27.9396,-96.8429,2.0,147.4929824,7.387408206,-99999.0,'11133222,11111222,99999999' 
TABS,ioos:station:wmo:42048:1,2014-10-02T14:30:00Z,27.9396,-96.8429,2.0,156.2479772,8.838648087,-99999.0,'11133222,11111222,99999999' 
TABS,ioos:station:wmo:42048:1,2014-10-02T15:00:00Z,27.9396,-96.8429,2.0,147.064751,11.36679374,-99999.0,'11111222,11111222,99999999' 
TABS,ioos:station:wmo:42048:1,2014-10-02T15:30:00Z,27.9396,-96.8429,2.0,150.4610764,8.620469825,-99999.0,'11133222,11111222,99999999' 
TABS,ioos:station:wmo:42048:1,2014-10-02T16:00:00Z,27.9396,-96.8429,2.0,146.09066,7.976647165,-99999.0,'11133222,11111222,99999999' 
TABS,ioos:station:wmo:42048:1,2014-10-02T16:30:00Z,27.9396,-96.8429,2.0,151.1580147,8.893154671,-99999.0,'11133222,11111222,99999999' 
TABS,ioos:station:wmo:42048:1,2014-10-02T17:00:00Z,27.9396,-96.8429,2.0,155.64384,9.165746014,-99999.0,'11133222,11111222,99999999' 
TABS,ioos:station:wmo:42048:1,2014-10-02T17:30:00Z,27.9396,-96.8429,2.0,142.3679286,9.924877833,-99999.0,'11133222,11111222,99999999' 
TABS,ioos:station:wmo:42048:1,2014-10-02T18:00:00Z,27.9396,-96.8429,2.0,147.524674,10.98830742,-99999.0,'11111222,11111222,99999999' 
TABS,ioos:station:wmo:42048:1,2014-10-02T18:30:00Z,27.9396,-96.8429,2.0,142.5155711,14.92085788,-99999.0,'11111222,11111222,99999999' 
TABS,ioos:station:wmo:42048:1,2014-10-02T19:00:00Z,27.9396,-96.8429,2.0,142.3982381,21.14172415,-99999.0,'11111222,11111222,99999999' 
TABS,ioos:station:wmo:42048:1,2014-10-02T19:30:00Z,27.9396,-96.8429,2.0,129.1446222,14.20919773,-99999.0,'11111222,11111222,99999999' 
TABS,ioos:station:wmo:42048:1,2014-10-02T20:00:00Z,27.9396,-96.8429,2.0,132.9173344,10.11831014,-99999.0,'11111222,11111222,99999999' 
TABS,ioos:station:wmo:42048:1,2014-10-02T20:30:00Z,27.9396,-96.8429,2.0,140.1067401,9.214825012,-99999.0,'11133222,11111222,99999999' 
TABS,ioos:station:wmo:42048:1,2014-10-02T21:00:00Z,27.9396,-96.8429,2.0,139.2900755,9.735856408,-99999.0,'11133222,11111222,99999999' 
TABS,ioos:station:wmo:42048:1,2014-10-02T21:30:00Z,27.9396,-96.8429,2.0,147.7065959,10.12628757,-99999.0,'11111222,11111222,99999999' 
TABS,ioos:station:wmo:42048:1,2014-10-02T22:00:00Z,27.9396,-96.8429,2.0,144.8782849,6.883204196,-99999.0,'11133222,11111222,99999999' 
TABS,ioos:station:wmo:42048:1,2014-10-02T22:30:00Z,27.9396,-96.8429,2.0,179.0071425,4.04060639,-99999.0,'11133222,11111222,99999999' 
TABS,ioos:station:wmo:42048:1,2014-10-02T23:00:00Z,27.9396,-96.8429,2.0,157.6370167,3.600805465,-99999.0,'11133222,11111222,99999999' 
TABS,ioos:station:wmo:42048:1,2014-10-02T23:30:00Z,27.9396,-96.8429,2.0,246.9292208,0.586941224,-99999.0,'11133222,11111222,99999999' 
TABS,ioos:station:wmo:42048:1,2014-10-03T00:00:00Z,27.9396,-96.8429,2.0,329.1803645,2.049414551,-99999.0,'11133222,11111222,99999999' 
TABS,ioos:station:wmo:42048:1,2014-10-03T00:30:00Z,27.9396,-96.8429,2.0,300.3990775,1.739080217,-99999.0,'11133222,11111222,99999999' 
TABS,ioos:station:wmo:42048:1,2014-10-03T01:00:00Z,27.9396,-96.8429,2.0,28.53729768,3.118926097,-99999.0,'11133222,11111222,99999999' 
TABS,ioos:station:wmo:42048:1,2014-10-03T01:30:00Z,27.9396,-96.8429,2.0,357.2662593,7.128113355,-99999.0,'11133222,11111222,99999999' 
TABS,ioos:station:wmo:42048:1,2014-10-03T02:00:00Z,27.9396,-96.8429,2.0,0.574789361,6.980350994,-99999.0,'11133222,11111222,99999999' 
TABS,ioos:station:wmo:42048:1,2014-10-03T02:30:00Z,27.9396,-96.8429,2.0,5.578540691,9.052872472,-99999.0,'11133222,11111222,99999999' 
TABS,ioos:station:wmo:42048:1,2014-10-03T03:00:00Z,27.9396,-96.8429,2.0,356.0349234,8.821116709,-99999.0,'11133222,11111222,99999999' 
TABS,ioos:station:wmo:42048:1,2014-10-03T03:30:00Z,27.9396,-96.8429,2.0,7.879959422,10.35779899,-99999.0,'11111222,11111222,99999999' 
TABS,ioos:station:wmo:42048:1,2014-10-03T04:00:00Z,27.9396,-96.8429,2.0,12.02970882,8.588602913,-99999.0,'11133222,11111222,99999999' 
TABS,ioos:station:wmo:42048:1,2014-10-03T04:30:00Z,27.9396,-96.8429,2.0,24.76678342,9.405062467,-99999.0,'11133222,11111222,99999999' 
TABS,ioos:station:wmo:42048:1,2014-10-03T05:00:00Z,27.9396,-96.8429,2.0,24.01984179,10.1707276,-99999.0,'11111222,11111222,99999999' 
TABS,ioos:station:wmo:42048:1,2014-10-03T05:30:00Z,27.9396,-96.8429,2.0,35.39139953,10.46348412,-99999.0,'11111222,11111222,99999999' 
TABS,ioos:station:wmo:42048:1,2014-10-03T06:00:00Z,27.9396,-96.8429,2.0,29.68889718,8.863526386,-99999.0,'11133222,11111222,99999999' 
TABS,ioos:station:wmo:42048:1,2014-10-03T06:30:00Z,27.9396,-96.8429,2.0,61.00032083,11.15910839,-99999.0,'11111222,11111222,99999999' 
TABS,ioos:station:wmo:42048:1,2014-10-03T07:00:00Z,27.9396,-96.8429,2.0,81.61737101,9.946260604,-99999.0,'11133222,11111222,99999999' 
TABS,ioos:station:wmo:42048:1,2014-10-03T07:30:00Z,27.9396,-96.8429,2.0,67.14587785,13.54319017,-99999.0,'11111222,11111222,99999999' 
TABS,ioos:station:wmo:42048:1,2014-10-03T08:00:00Z,27.9396,-96.8429,2.0,77.65561856,13.14388451,-99999.0,'11111222,11111222,99999999' 
TABS,ioos:station:wmo:42048:1,2014-10-03T08:30:00Z,27.9396,-96.8429,2.0,83.1325071,16.5588043,-99999.0,'11111222,11111222,99999999' 
TABS,ioos:station:wmo:42048:1,2014-10-03T09:00:00Z,27.9396,-96.8429,2.0,79.5994723,12.85114781,-99999.0,'11111222,11111222,99999999' 
TABS,ioos:station:wmo:42048:1,2014-10-03T09:30:00Z,27.9396,-96.8429,2.0,84.44650966,14.87984207,-99999.0,'11111222,11111222,99999999' 
TABS,ioos:station:wmo:42048:1,2014-10-03T10:00:00Z,27.9396,-96.8429,2.0,128.5363327,15.95474851,-99999.0,'11111222,11111222,99999999' 
TABS,ioos:station:wmo:42048:1,2014-10-03T10:30:00Z,27.9396,-96.8429,2.0,152.5497332,15.05500581,-99999.0,'11111222,11111222,99999999' 
TABS,ioos:station:wmo:42048:1,2014-10-03T11:00:00Z,27.9396,-96.8429,2.0,170.0929388,23.30754599,-99999.0,'11111222,11111222,99999999' 
TABS,ioos:station:wmo:42048:1,2014-10-03T11:30:00Z,27.9396,-96.8429,2.0,171.0835703,25.35640747,-99999.0,'11111222,11111222,99999999' 
TABS,ioos:station:wmo:42048:1,2014-10-03T12:00:00Z,27.9396,-96.8429,2.0,178.5215203,18.60619252,-99999.0,'11111222,11111222,99999999' 
TABS,ioos:station:wmo:42048:1,2014-10-03T12:30:00Z,27.9396,-96.8429,2.0,188.3595581,21.8724027,-99999.0,'11111222,11111222,99999999' 
TABS,ioos:station:wmo:42048:1,2014-10-03T13:00:00Z,27.9396,-96.8429,2.0,199.7410033,19.83579845,-99999.0,'11111222,11111222,99999999' 
TABS,ioos:station:wmo:42048:1,2014-10-03T13:30:00Z,27.9396,-96.8429,2.0,200.6328093,21.76616181,-99999.0,'11111222,11111222,99999999' 
TABS,ioos:station:wmo:42048:1,2014-10-03T14:00:00Z,27.9396,-96.8429,2.0,207.9713087,22.0453283,-99999.0,'11111222,11111222,99999999' 
TABS,ioos:station:wmo:42048:1,2014-10-03T14:30:00Z,27.9396,-96.8429,2.0,221.0689371,21.24904704,-99999.0,'11111222,11111222,99999999' 
TABS,ioos:station:wmo:42048:1,2014-10-03T15:00:00Z,27.9396,-96.8429,2.0,219.0971984,22.89730333,-99999.0,'11111222,11111222,99999999' 
TABS,ioos:station:wmo:42048:1,2014-10-03T15:30:00Z,27.9396,-96.8429,2.0,226.0457829,19.75278461,-99999.0,'11111222,11111222,99999999' 
TABS,ioos:station:wmo:42048:1,2014-10-03T16:00:00Z,27.9396,-96.8429,2.0,228.621647,21.04310338,-99999.0,'11111222,11111222,99999999' 
TABS,ioos:station:wmo:42048:1,2014-10-03T16:30:00Z,27.9396,-96.8429,2.0,233.3446701,19.19613503,-99999.0,'11111222,11111222,99999999' 
TABS,ioos:station:wmo:42048:1,2014-10-03T17:00:00Z,27.9396,-96.8429,2.0,233.1297677,22.1,-99999.0,'11111222,11111222,99999999' 
TABS,ioos:station:wmo:42048:1,2014-10-03T17:30:00Z,27.9396,-96.8429,2.0,234.295246,25.56528897,-99999.0,'11111222,11111222,99999999' 
TABS,ioos:station:wmo:42048:1,2014-10-03T18:00:00Z,27.9396,-96.8429,2.0,231.5852002,25.89540886,-99999.0,'11111222,11111222,99999999' 
TABS,ioos:station:wmo:42048:1,2014-10-03T18:30:00Z,27.9396,-96.8429,2.0,238.8460586,27.95099283,-99999.0,'11111222,11111222,99999999' 
TABS,ioos:station:wmo:42048:1,2014-10-03T19:00:00Z,27.9396,-96.8429,2.0,244.7312521,30.82985566,-99999.0,'11111222,11111222,99999999' 
TABS,ioos:station:wmo:42048:1,2014-10-03T19:30:00Z,27.9396,-96.8429,2.0,249.6783229,21.71131502,-99999.0,'11111222,11111222,99999999' 
TABS,ioos:station:wmo:42048:1,2014-10-03T20:00:00Z,27.9396,-96.8429,2.0,251.2901583,23.10070345,-99999.0,'11111222,11111222,99999999' 
TABS,ioos:station:wmo:42048:1,2014-10-03T20:30:00Z,27.9396,-96.8429,2.0,260.8691198,33.21079644,-99999.0,'11111222,11111222,99999999' 
TABS,ioos:station:wmo:42048:1,2014-10-03T21:00:00Z,27.9396,-96.8429,2.0,258.6896731,27.53470537,-99999.0,'11111222,11111222,99999999' 
TABS,ioos:station:wmo:42048:1,2014-10-03T21:30:00Z,27.9396,-96.8429,2.0,255.7609599,30.2080006,-99999.0,'11111222,11111222,99999999' 
TABS,ioos:station:wmo:42048:1,2014-10-03T22:00:00Z,27.9396,-96.8429,2.0,260.388657,27.25251181,-99999.0,'11111222,11111222,99999999' 
TABS,ioos:station:wmo:42048:1,2014-10-03T22:30:00Z,27.9396,-96.8429,2.0,251.469193,24.66896228,-99999.0,'11111222,11111222,99999999' 
TABS,ioos:station:wmo:42048:1,2014-10-03T23:00:00Z,27.9396,-96.8429,2.0,255.5743451,28.21967044,-99999.0,'11111222,11111222,99999999' 
TABS,ioos:station:wmo:42048:1,2014-10-03T23:30:00Z,27.9396,-96.8429,2.0,262.7641652,30.25088759,-99999.0,'11111222,11111222,99999999' 
TABS,ioos:station:wmo:42048:1,2014-10-04T00:00:00Z,27.9396,-96.8429,2.0,263.091538,27.18736839,-99999.0,'11111222,11111222,99999999' 
TABS,ioos:station:wmo:42048:1,2014-10-04T00:30:00Z,27.9396,-96.8429,2.0,258.5583449,30.8020811,-99999.0,'11111222,11111222,99999999' 
TABS,ioos:station:wmo:42048:1,2014-10-04T01:00:00Z,27.9396,-96.8429,2.0,266.5865445,36.11405544,-99999.0,'11111222,11111222,99999999' 
TABS,ioos:station:wmo:42048:1,2014-10-04T01:30:00Z,27.9396,-96.8429,2.0,266.5155858,34.06295495,-99999.0,'11111222,11111222,99999999' 
TABS,ioos:station:wmo:42048:1,2014-10-04T02:00:00Z,27.9396,-96.8429,2.0,263.8452453,34.04621859,-99999.0,'11111222,11111222,99999999' 
TABS,ioos:station:wmo:42048:1,2014-10-04T02:30:00Z,27.9396,-96.8429,2.0,264.0132219,29.1489571,-99999.0,'11111222,11111222,99999999' 
TABS,ioos:station:wmo:42048:1,2014-10-04T03:00:00Z,27.9396,-96.8429,2.0,260.499894,30.23462419,-99999.0,'11111222,11111222,99999999' 
TABS,ioos:station:wmo:42048:1,2014-10-04T03:30:00Z,27.9396,-96.8429,2.0,261.1540066,33.29601177,-99999.0,'11111222,11111222,99999999' 
TABS,ioos:station:wmo:42048:1,2014-10-04T04:00:00Z,27.9396,-96.8429,2.0,260.8479395,32.44297305,-99999.0,'11111222,11111222,99999999' 
TABS,ioos:station:wmo:42048:1,2014-10-04T04:30:00Z,27.9396,-96.8429,2.0,262.452315,25.5816184,-99999.0,'11111222,11111222,99999999' 
TABS,ioos:station:wmo:42048:1,2014-10-04T05:00:00Z,27.9396,-96.8429,2.0,255.8358561,26.15510658,-99999.0,'11111222,11111222,99999999' 
TABS,ioos:station:wmo:42048:1,2014-10-04T05:30:00Z,27.9396,-96.8429,2.0,247.5233696,23.01853384,-99999.0,'11111222,11111222,99999999' 
TABS,ioos:station:wmo:42048:1,2014-10-04T06:00:00Z,27.9396,-96.8429,2.0,242.9817508,24.89715847,-99999.0,'11111222,11111222,99999999' 
TABS,ioos:station:wmo:42048:1,2014-10-04T06:30:00Z,27.9396,-96.8429,2.0,241.6954695,22.69312671,-99999.0,'11111222,11111222,99999999' 
TABS,ioos:station:wmo:42048:1,2014-10-04T07:00:00Z,27.9396,-96.8429,2.0,238.4743979,23.27519065,-99999.0,'11111222,11111222,99999999' 
TABS,ioos:station:wmo:42048:1,2014-10-04T07:30:00Z,27.9396,-96.8429,2.0,243.8921945,21.83813637,-99999.0,'11111222,11111222,99999999' 
TABS,ioos:station:wmo:42048:1,2014-10-04T08:00:00Z,27.9396,-96.8429,2.0,247.9388467,24.20192141,-99999.0,'11111222,11111222,99999999' 
TABS,ioos:station:wmo:42048:1,2014-10-04T08:30:00Z,27.9396,-96.8429,2.0,230.8741715,24.59505641,-99999.0,'11111222,11111222,99999999' 
TABS,ioos:station:wmo:42048:1,2014-10-04T09:00:00Z,27.9396,-96.8429,2.0,239.2933068,25.57584212,-99999.0,'11111222,11111222,99999999' 
TABS,ioos:station:wmo:42048:1,2014-10-04T09:30:00Z,27.9396,-96.8429,2.0,229.4740005,24.654168,-99999.0,'11111222,11111222,99999999' 
TABS,ioos:station:wmo:42048:1,2014-10-04T10:00:00Z,27.9396,-96.8429,2.0,228.0276143,30.92252415,-99999.0,'11111222,11111222,99999999' 
TABS,ioos:station:wmo:42048:1,2014-10-04T10:30:00Z,27.9396,-96.8429,2.0,229.2383037,26.78776213,-99999.0,'11111222,11111222,99999999' 
TABS,ioos:station:wmo:42048:1,2014-10-04T11:00:00Z,27.9396,-96.8429,2.0,233.9411292,28.3888464,-99999.0,'11111222,11111222,99999999' 
TABS,ioos:station:wmo:42048:1,2014-10-04T11:30:00Z,27.9396,-96.8429,2.0,227.2626597,25.78708204,-99999.0,'11111222,11111222,99999999' 
TABS,ioos:station:wmo:42048:1,2014-10-04T12:00:00Z,27.9396,-96.8429,2.0,223.9083454,30.8142321,-99999.0,'11111222,11111222,99999999' 
TABS,ioos:station:wmo:42048:1,2014-10-04T12:30:00Z,27.9396,-96.8429,2.0,222.9368467,29.85925652,-99999.0,'11111222,11111222,99999999' 
TABS,ioos:station:wmo:42048:1,2014-10-04T13:00:00Z,27.9396,-96.8429,2.0,230.5220426,30.19927317,-99999.0,'11111222,11111222,99999999' 
TABS,ioos:station:wmo:42048:1,2014-10-04T13:30:00Z,27.9396,-96.8429,2.0,222.1282843,29.21898184,-99999.0,'11111222,11111222,99999999' 
TABS,ioos:station:wmo:42048:1,2014-10-04T14:00:00Z,27.9396,-96.8429,2.0,222.4693978,28.51005787,-99999.0,'11111222,11111222,99999999' 
TABS,ioos:station:wmo:42048:1,2014-10-04T14:30:00Z,27.9396,-96.8429,2.0,244.4204599,42.10692105,-99999.0,'11111222,11111222,99999999' 
TABS,ioos:station:wmo:42048:1,2014-10-04T15:00:00Z,27.9396,-96.8429,2.0,229.8150537,32.51439681,-99999.0,'11111222,11111222,99999999' 
TABS,ioos:station:wmo:42048:1,2014-10-04T15:30:00Z,27.9396,-96.8429,2.0,221.9342567,27.50338161,-99999.0,'11111222,11111222,99999999' 
TABS,ioos:station:wmo:42048:1,2014-10-04T16:00:00Z,27.9396,-96.8429,2.0,218.6350191,25.57814106,-99999.0,'11111222,11111222,99999999' 